Tracking 30923 objects as of 1-Jul-2025
HD Live streaming from Space Station
objects crossing your sky now

STARLINK-4728

Track STARLINK-4728 now!
10-day predictions
STARLINK-4728 is classified as:


NORAD ID: 53793
Int'l Code: 2022-111W
Perigee: 546.1 km
Apogee: 547.7 km
Inclination: 53.2 °
Period: 95.4 minutes
Semi major axis: 6917 km
RCS: Unknown
Launch date: September 11, 2022
Source: United States (US)
Launch site: AIR FORCE EASTERN TEST RANGE (AFETR)
Your satellite tracking list
STARLINK-3266
Track 1 satellite(s)




NASA's NSSDC Master Catalog

Two Line Element Set (TLE):
1 53793U 22111W   25181.80965059  .00000117  00000-0  25458-4 0  9990
2 53793  53.2186 324.6513 0001191  90.6015 269.5113 15.08838557155661
Source of the keplerian elements: AFSPC